Wind_Speed
70 74 74 71 71 67 67 65 62 60 58 54 52 49 41 33 39 40 40 47 47 48 47 45 44 42 42 40 36 35 36 36 34 34 34 34 35 35 34 36 37 38 41 43
67 70 67 74 73 71 68 66 64 61 58 58 56 54 49 40 38 40 40 42 45 48 50 49 46 44 41 39 38 37 35 35 37 36 34 33 34 36 37 37 39 41 42 44
63 60 61 68 70 69 68 67 62 60 57 55 53 55 52 42 40 38 38 40 44 46 46 47 47 45 45 42 41 41 42 41 39 37 36 37 37 37 38 36 38 39 39 39
54 54 63 64 66 64 64 62 61 59 57 55 52 54 50 41 39 40 41 41 41 44 44 43 45 45 45 45 47 46 46 46 42 38 37 37 38 38 37 37 38 37 37 38
40 46 53 62 66 56 53 60 57 56 55 54 52 54 51 48 41 40 41 38 39 40 39 40 43 44 44 48 51 51 51 51 49 47 45 44 42 40 39 38 37 39 39 39
16 29 43 45 47 47 49 48 51 49 47 52 49 52 54 49 43 40 39 40 35 35 34 36 39 43 46 48 49 50 52 52 52 52 50 47 44 42 40 40 39 38 38 35
18 14 30 40 43 44 49 50 49 50 51 57 50 52 53 50 45 41 40 33 35 35 36 35 34 37 41 44 46 47 49 50 49 48 47 46 46 42 42 39 35 33 33 34
21 22 26 39 43 45 50 49 55 59 60 57 50 52 52 48 46 40 34 34 35 34 31 30 32 35 38 39 41 43 46 47 48 47 47 47 45 41 36 29 28 28 28 28
15 22 22 33 35 46 47 49 42 44 46 50 51 51 54 46 38 38 33 33 33 29 29 30 33 35 35 37 40 43 45 48 48 48 49 46 39 32 26 25 21 20 20 22
13 19 19 33 34 37 43 36 46 45 45 46 47 46 49 40 36 33 31 30 29 30 30 30 30 28 27 32 34 34 37 40 41 39 38 33 31 30 29 24 21 20 20 21
15 16 17 35 39 32 43 36 44 45 45 43 43 46 44 34 35 33 32 31 32 34 33 29 29 27 29 25 27 32 30 29 30 34 35 34 33 41 29 24 18 19 22 24
11 13 27 35 37 31 36 32 39 42 42 46 43 41 43 36 38 35 32 33 37 34 31 24 26 27 27 28 28 26 24 23 25 30 36 37 36 45 25 19 20 23 25 28
13 15 22 31 36 34 33 34 39 44 42 43 43 42 44 38 37 35 35 34 39 33 29 27 25 28 21 20 23 26 27 25 27 30 35 33 22 19 22 22 25 25 27 30
2 27 20 24 32 39 31 46 37 42 43 39 41 40 42 40 37 36 36 34 31 31 28 28 28 27 25 25 24 26 29 33 34 31 30 34 24 24 31 30 29 31 33 35
10 18 19 15 27 28 32 40 40 37 42 32 29 30 35 37 39 36 32 31 30 30 30 32 28 27 27 23 23 24 23 33 32 31 31 32 24 29 31 34 37 38 39 40
21 20 16 17 17 29 24 35 36 40 48 37 32 28 28 34 35 37 34 35 31 33 29 26 29 31 22 14 13 15 18 18 21 34 24 21 26 29 32 35 37 38 40 42
18 23 19 14 19 22 27 34 32 34 47 34 32 30 29 28 30 30 28 24 22 24 24 21 19 13 13 16 19 18 18 16 17 21 26 29 29 31 34 36 38 40 42 44
25 18 16 17 17 24 23 23 30 25 36 36 31 27 30 30 30 27 26 20 17 16 18 14 11 12 14 16 17 15 13 14 18 22 25 27 30 33 34 36 38 39 39 41
18 18 19 18 19 21 20 24 26 20 28 37 34 27 23 20 23 23 21 19 18 12 10 13 14 15 14 13 14 13 12 15 20 23 27 29 32 34 36 37 38 39 41 44
15 23 19 17 16 19 21 23 23 27 30 32 29 23 23 21 18 17 13 14 13 12 10 10 11 17 17 12 12 17 17 22 23 26 29 29 30 30 32 35 38 41 42 43
16 15 19 16 17 18 18 22 41 31 26 28 23 19 16 14 15 16 16 15 13 9 8 5 3 12 17 15 15 18 22 22 21 22 23 24 28 30 33 35 37 36 36 38
20 17 18 17 18 19 20 25 35 30 23 22 21 23 23 20 18 15 13 17 14 12 8 7 5 6 14 18 19 19 20 20 19 21 23 27 30 32 33 31 30 32 32 30
17 15 18 24 20 22 20 21 23 25 18 20 23 25 23 19 18 15 14 16 16 11 9 9 9 12 14 18 19 21 20 20 20 24 27 28 30 31 29 29 31 25 27 23
14 16 19 22 20 18 18 21 22 22 22 22 24 18 26 20 14 17 15 13 13 12 11 13 15 15 17 18 17 17 19 21 22 24 26 28 30 29 28 30 23 23 22 19
16 17 21 23 21 15 18 23 22 20 22 18 21 24 19 18 19 15 11 10 11 11 14 13 14 14 14 15 17 19 21 23 25 27 28 30 29 26 27 22 21 20 19 14
15 13 17 21 22 19 25 24 19 19 20 23 17 14 18 17 16 12 10 10 11 12 12 12 13 14 14 16 20 23 26 27 27 27 29 29 26 24 20 18 17 15 12 11
Wind_Direction
245 242 246 245 243 241 242 242 243 243 243 243 239 239 240 232 237 238 232 234 239 244 246 249 250 250 253 256 256 253 251 253 253 254 256 256 256 256 258 259 261 259 261 263
247 243 242 237 235 236 239 239 240 241 241 241 241 239 239 235 235 238 238 233 237 239 243 246 251 254 252 253 255 258 260 260 259 260 259 259 259 258 258 258 260 261 262 264
247 241 237 237 235 233 231 236 236 238 239 240 239 239 240 237 237 237 238 235 233 237 241 244 247 252 256 257 258 259 260 262 263 263 264 264 263 262 263 266 262 264 266 268
243 236 234 230 229 231 232 231 232 234 237 236 234 235 235 233 234 237 237 235 232 233 236 242 247 249 255 259 260 263 265 268 270 267 264 266 270 270 270 270 271 272 270 270
247 243 237 232 228 227 229 225 226 228 231 233 230 231 229 232 232 237 243 243 237 236 238 239 245 248 250 252 255 258 262 268 272 273 272 272 271 270 270 273 274 276 278 274
229 223 225 231 229 231 227 221 219 222 228 228 226 230 229 230 231 232 233 237 236 231 230 231 236 240 246 249 253 257 259 262 265 269 271 270 270 270 272 274 275 272 270 266
226 238 215 216 210 212 213 208 209 212 216 222 221 224 228 225 228 229 232 229 229 229 229 229 233 237 239 244 249 253 256 259 260 261 264 266 267 268 266 265 263 258 254 253
238 229 221 212 206 208 207 205 208 210 214 217 216 222 226 227 224 227 224 223 225 226 229 231 235 238 240 243 246 250 253 256 259 260 259 261 261 260 262 261 254 249 250 252
244 223 230 215 205 206 206 207 205 212 216 217 215 214 221 218 218 219 216 219 221 220 225 230 234 238 239 241 239 242 248 252 255 257 258 257 256 255 245 239 243 248 249 249
240 217 213 197 201 204 207 208 202 200 206 208 212 213 220 216 215 213 212 215 220 221 223 226 230 233 226 224 231 241 247 253 254 256 258 254 244 232 230 224 226 234 248 258
194 194 192 193 190 199 191 199 196 201 200 207 209 209 214 206 208 210 207 208 215 218 220 221 220 224 227 233 240 248 247 251 254 253 248 249 236 241 232 235 242 254 262 268
211 204 183 186 184 186 203 192 196 199 199 201 205 208 211 201 200 203 198 203 212 217 220 213 213 220 229 240 242 244 247 254 263 263 246 244 250 247 240 240 249 257 267 274
211 184 189 185 187 201 199 186 193 191 198 202 207 200 206 204 200 200 200 203 212 212 216 211 214 218 223 237 246 245 251 264 270 274 270 259 248 257 264 255 259 261 267 272
2 164 186 199 190 193 198 189 187 192 190 200 208 202 203 206 198 196 202 206 208 208 214 222 229 237 247 238 242 252 259 263 266 270 280 259 261 256 259 257 259 258 266 275
138 161 177 176 203 204 210 195 187 185 185 187 202 201 200 204 202 200 199 206 211 215 221 225 233 243 243 240 245 256 281 268 262 269 272 259 265 267 271 270 265 265 273 277
135 176 168 155 168 199 182 186 190 186 178 177 183 182 187 201 204 208 212 213 208 213 214 231 239 240 225 244 277 261 265 264 243 256 249 254 264 267 269 270 270 269 275 280
109 144 146 140 135 151 187 187 183 188 180 175 176 191 192 180 188 197 203 203 212 208 197 211 232 235 241 247 254 251 245 246 246 256 254 257 264 270 272 274 276 279 283 285
141 147 160 152 146 159 173 181 181 178 188 177 164 169 167 171 181 176 181 173 188 195 199 219 227 233 233 232 226 232 233 249 261 264 263 265 268 271 277 280 285 287 289 290
153 154 152 165 167 161 172 178 177 184 187 183 183 185 192 184 179 174 175 173 178 188 215 231 233 229 219 209 215 236 256 269 270 274 277 283 286 287 289 288 288 291 291 293
139 147 155 132 150 172 165 171 174 182 183 178 183 190 188 190 184 180 180 189 209 225 241 260 237 213 216 222 248 261 276 286 279 279 281 283 284 285 286 289 291 290 291 292
165 127 159 147 145 155 170 162 164 166 180 163 163 154 163 176 185 208 219 219 225 215 223 227 190 212 232 259 273 274 282 283 284 287 289 290 292 293 293 294 292 292 293 294
170 162 151 152 138 151 163 157 173 163 168 166 169 170 170 180 182 193 206 215 208 202 214 224 255 258 244 252 274 272 278 284 290 292 292 294 296 304 305 301 300 299 300 300
168 162 161 154 142 136 145 155 153 164 171 183 190 183 179 182 182 195 200 198 200 212 240 249 263 270 262 264 274 279 285 290 291 294 299 304 308 311 307 304 305 301 303 308
139 145 151 153 152 139 138 154 159 169 179 196 196 188 171 187 183 174 180 195 213 228 245 259 270 267 265 268 279 287 288 289 297 301 305 310 313 312 307 309 304 305 309 308
131 139 156 158 160 161 158 160 168 174 180 178 180 179 185 184 173 182 192 204 222 245 259 261 265 274 282 285 288 293 303 308 310 308 308 310 312 310 310 306 305 303 308 311
149 124 163 161 161 156 149 150 156 177 171 155 161 168 186 182 187 203 209 229 253 260 260 265 273 282 292 304 312 315 311 308 306 306 306 307 310 307 305 303 300 312 307 318
Height
5635 5640 5659 5672 5676 5684 5690 5698 5705 5711 5717 5724 5731 5735 5744 5751 5755 5759 5765 5769 5774 5777 5782 5786 5790 5795 5799 5803 5809 5812 5814 5816 5819 5821 5822 5823 5823 5823 5824 5823 5822 5821 5821 5821
5608 5626 5643 5640 5651 5663 5672 5682 5690 5696 5704 5711 5717 5725 5731 5740 5746 5750 5756 5763 5766 5769 5774 5779 5783 5787 5792 5795 5798 5801 5805 5807 5808 5811 5812 5814 5813 5813 5813 5814 5814 5813 5812 5811
5586 5616 5612 5623 5635 5644 5657 5666 5676 5682 5688 5697 5705 5712 5721 5730 5736 5742 5747 5753 5758 5761 5766 5771 5776 5781 5784 5788 5791 5793 5795 5797 5799 5801 5803 5804 5804 5804 5805 5805 5805 5805 5804 5804
5570 5589 5592 5603 5616 5630 5642 5655 5661 5669 5674 5685 5693 5703 5711 5718 5726 5733 5738 5743 5749 5755 5759 5764 5768 5773 5777 5780 5781 5784 5787 5789 5790 5793 5794 5794 5795 5796 5797 5797 5797 5798 5798 5797
5567 5572 5578 5586 5606 5616 5630 5637 5647 5653 5661 5669 5683 5691 5701 5708 5717 5724 5730 5737 5742 5748 5754 5758 5762 5767 5770 5770 5772 5775 5778 5779 5780 5782 5783 5784 5784 5786 5787 5788 5789 5788 5787 5787
5550 5555 5561 5579 5590 5602 5610 5623 5632 5641 5648 5655 5674 5683 5690 5701 5710 5716 5722 5728 5734 5740 5744 5749 5754 5757 5760 5763 5766 5768 5769 5771 5773 5773 5773 5773 5775 5776 5777 5779 5779 5778 5777 5777
5542 5551 5556 5563 5574 5584 5594 5603 5615 5625 5633 5657 5662 5670 5685 5692 5700 5707 5714 5721 5725 5730 5735 5741 5746 5749 5752 5755 5757 5759 5760 5761 5763 5763 5764 5765 5765 5766 5767 5768 5769 5769 5768 5769
5538 5543 5549 5554 5564 5577 5586 5598 5604 5613 5627 5643 5652 5664 5675 5682 5692 5697 5706 5713 5718 5723 5728 5733 5738 5742 5746 5748 5751 5752 5752 5754 5754 5756 5756 5756 5756 5758 5759 5759 5758 5760 5762 5762
5534 5538 5543 5551 5561 5570 5579 5588 5607 5615 5628 5636 5646 5655 5663 5673 5683 5691 5698 5705 5711 5718 5723 5727 5731 5735 5739 5742 5744 5745 5746 5747 5748 5749 5748 5750 5751 5752 5752 5752 5754 5755 5755 5756
5531 5535 5539 5548 5557 5565 5573 5596 5597 5607 5618 5629 5640 5651 5658 5669 5678 5686 5693 5700 5707 5712 5717 5721 5725 5729 5734 5736 5738 5740 5741 5741 5742 5743 5744 5745 5745 5745 5745 5745 5747 5748 5749 5749
5528 5532 5537 5544 5548 5560 5569 5578 5591 5603 5615 5625 5635 5645 5654 5664 5673 5680 5688 5695 5701 5706 5712 5717 5722 5725 5727 5732 5734 5735 5735 5734 5735 5736 5736 5736 5736 5739 5738 5739 5741 5742 5743 5742
5527 5529 5535 5543 5550 5561 5572 5580 5590 5599 5612 5619 5629 5641 5648 5658 5666 5674 5683 5690 5696 5702 5708 5713 5717 5720 5725 5728 5729 5729 5729 5730 5731 5730 5731 5731 5732 5732 5733 5734 5734 5734 5735 5734
5527 5528 5536 5544 5553 5559 5566 5577 5586 5596 5607 5616 5625 5634 5642 5653 5663 5671 5679 5685 5692 5698 5703 5707 5711 5715 5718 5721 5723 5724 5725 5727 5727 5727 5726 5726 5725 5726 5729 5728 5728 5727 5726 5726
5526 5529 5537 5544 5551 5555 5563 5573 5582 5595 5605 5613 5620 5631 5639 5647 5658 5666 5674 5680 5687 5693 5698 5702 5706 5710 5713 5715 5717 5718 5719 5719 5719 5719 5719 5719 5720 5723 5724 5722 5720 5719 5718 5716
5526 5532 5539 5544 5550 5554 5565 5576 5582 5593 5606 5614 5620 5628 5639 5647 5655 5663 5670 5677 5683 5688 5692 5696 5700 5704 5707 5709 5711 5712 5712 5711 5712 5711 5711 5712 5713 5714 5713 5713 5712 5710 5709 5707
5532 5536 5541 5546 5549 5556 5564 5575 5583 5593 5601 5610 5618 5626 5634 5642 5650 5658 5665 5673 5678 5682 5687 5692 5696 5699 5701 5703 5705 5706 5706 5704 5703 5706 5705 5707 5706 5706 5705 5704 5703 5701 5699 5696
5529 5536 5544 5549 5554 5559 5568 5576 5584 5593 5602 5612 5618 5627 5633 5640 5646 5655 5662 5667 5672 5676 5682 5687 5690 5693 5695 5697 5698 5699 5699 5700 5700 5701 5701 5701 5700 5698 5697 5696 5694 5692 5689 5686
5536 5542 5547 5552 5557 5565 5571 5578 5586 5595 5604 5611 5618 5625 5631 5638 5645 5652 5658 5664 5669 5674 5678 5683 5686 5688 5690 5690 5692 5693 5694 5695 5696 5696 5696 5694 5693 5691 5689 5688 5685 5682 5678 5675
5542 5546 5551 5556 5561 5569 5574 5581 5589 5596 5605 5613 5619 5626 5632 5638 5644 5649 5656 5663 5667 5671 5675 5678 5680 5683 5685 5686 5688 5690 5690 5690 5690 5689 5688 5686 5684 5681 5680 5677 5674 5670 5666 5663
5546 5551 5556 5559 5566 5570 5578 5583 5591 5598 5606 5614 5622 5629 5634 5638 5643 5651 5656 5661 5665 5669 5671 5674 5676 5678 5680 5682 5684 5685 5685 5685 5684 5683 5681 5679 5677 5674 5672 5668 5663 5660 5656 5652
5550 5554 5560 5565 5569 5575 5579 5585 5593 5601 5610 5614 5622 5628 5634 5639 5645 5650 5654 5659 5662 5666 5669 5670 5671 5674 5677 5679 5680 5681 5681 5680 5678 5676 5673 5671 5669 5665 5662 5657 5654 5649 5645 5641
5554 5559 5562 5568 5572 5578 5582 5588 5598 5605 5609 5617 5623 5629 5634 5638 5645 5649 5653 5656 5661 5664 5667 5669 5670 5672 5673 5675 5675 5675 5674 5672 5670 5668 5666 5664 5660 5655 5651 5647 5644 5640 5635 5631
5558 5561 5566 5571 5576 5580 5585 5592 5598 5605 5613 5618 5623 5629 5634 5639 5644 5648 5652 5655 5658 5662 5664 5666 5667 5668 5669 5669 5669 5668 5667 5665 5664 5662 5659 5655 5651 5647 5644 5640 5636 5631 5628 5624
5562 5565 5570 5575 5579 5584 5589 5594 5600 5606 5613 5618 5624 5630 5632 5639 5643 5648 5652 5655 5658 5660 5661 5662 5663 5664 5665 5665 5664 5663 5662 5660 5658 5655 5652 5648 5644 5640 5636 5632 5628 5625 5622 5619
5567 5569 5572 5576 5582 5587 5591 5596 5602 5608 5613 5620 5625 5631 5634 5639 5644 5648 5651 5653 5655 5657 5659 5659 5660 5660 5660 5660 5659 5657 5655 5652 5650 5647 5644 5641 5638 5633 5630 5627 5624 5622 5618 5615
5570 5573 5576 5580 5585 5590 5594 5599 5604 5610 5616 5621 5627 5632 5636 5640 5644 5647 5649 5651 5653 5654 5655 5656 5656 5657 5656 5654 5651 5648 5646 5645 5643 5640 5638 5635 5632 5628 5625 5623 5621 5618 5615 5613